Weather Roundup
Issued by NWS

Home | Current Version | Previous Version | Graphics & Text | Print | Product List | Glossary Off
Versions: 1 2 3 4 5 6 7 8 9 10 11 12 13 14 15 16 17 18 19 20 21 22 23 24 25 26 27 28 29 30 31 32 33 34 35 36 37 38 39 40 41 42 43 44 45 46 47 48 49 50

000
NZUS93 KARX 242310
HRRWXR

CURRENT HOURLY OBSERVATIONS ACROSS
MUCH OF THE UPPER MISSISSIPPI VALLEY
NATIONAL WEATHER SERVICE LA CROSSE WI
500 PM CST FRI NOV 24 2017


...SOUTHEAST MINNESOTA...


CITY           SKY/WX    TMP DP  RH WIND       PRES   REMARKS
ROCHESTER      CLOUDY    53  44  71 NW16G23   29.49R
ROCHESTER/MAYO CLOUDY    54  45  71 W17       29.48R
WINONA         LGT RAIN  55  41  58 NW7       29.46R
AUSTIN         LGT RAIN  52  45  76 NW17G24   29.52R
ALBERT LEA     CLOUDY    52  43  71 NW17G25   29.54R
DODGE CENTER   LGT RAIN  50  45  81 W15       29.51R
PRESTON        CLOUDY    55  40  58 NW15      29.49R
OWATONNA       PTCLDY    52  45  76 W14G25    29.53R
FARIBAULT      PTCLDY    48  43  81 NW13G24   29.54R
$$

...ELSEWHERE IN MINNESOTA...


CITY           SKY/WX    TMP DP  RH WIND       PRES   REMARKS
MINNEAPOLIS    PTCLDY    50  42  74 NW16G23   29.53R
INTNL FALLS    CLOUDY    38  29  70 NW9       29.43R WCI  31
DULUTH         MOCLDY    39  37  92 NW14G28   29.41R WCI  31
RED WING       LGT RAIN  52  45  76 NW13G23   29.47R
REDWOOD FALLS  CLEAR     48  37  65 NW14      29.62R
MANKATO        CLEAR     49  40  71 NW20G25   29.58R
WORTHINGTON    CLEAR     49  35  58 NW22G28   29.67R
FAIRMONT       CLEAR     51  40  65 NW24G31   29.61R
$$

...SOUTHWEST WISCONSIN...


CITY           SKY/WX    TMP DP  RH WIND       PRES   REMARKS
LA CROSSE      CLOUDY    55  42  61 W9        29.44R
PRAIRIE DU CHI MOCLDY    57  39  52 W7        29.46R
BOSCOBEL       PTCLDY    60  41  49 W8        29.45R
LONE ROCK      PTCLDY    60  42  51 W15G21    29.42R
PLATTEVILLE    CLEAR     59  42  53 W18       29.45R
FORT MC COY    CLOUDY    57  41  56 W5        29.43R
CAMP DOUGLAS   MOCLDY    57  40  53 W7        29.40R
MAUSTON-NEW LI CLOUDY    58  41  53 W6        29.40R
VIROQUA        MOCLDY    54  42  63 W6        29.44R
WIS DELLS      CLEAR     58  38  47 W8        29.40R
$$

...ELSEWHERE IN WISCONSIN...


CITY           SKY/WX    TMP DP  RH WIND       PRES   REMARKS
MILWAUKEE      PTCLDY    61  39  44 SW14G23   29.40R
MADISON        MOCLDY    59  39  47 SW5       29.39R
GREEN BAY      CLOUDY    57  41  55 W10       29.34R
EAU CLAIRE     LGT RAIN  48  45  89 W6        29.43R
BLACK RVR FLS  LGT RAIN  57  38  50 W7        29.42R
MEDFORD        CLOUDY    50  39  65 W15G21    29.38R
WAUSAU         MOCLDY    52  39  61 W7        29.34F
WIS RAPIDS     CLOUDY    57  40  52 W7        29.39S
MARSHFIELD     LGT RAIN  52  40  63 W9        29.38R
RICE LAKE      CLOUDY    46  43  90 NW6       29.46R
$$

...NORTHEAST IOWA...


CITY           SKY/WX    TMP DP  RH WIND       PRES   REMARKS
WATERLOO       MOCLDY    58  40  51 W5        29.50R
DUBUQUE        CLEAR     59  41  51 W18G24    29.46R
DECORAH        CLOUDY    57  41  54 NW5       29.46R
MASON CITY     LGT RAIN  52  45  77 NW22G36   29.56R
CHARLES CITY   CLOUDY    59  41  51 W7        29.50R
OELWEIN        MOCLDY    55  43  62 NW8       29.50R
$$

...ELSEWHERE IN IOWA...


CITY           SKY/WX    TMP DP  RH WIND       PRES   REMARKS
DES MOINES     PTCLDY    61  41  47 NW6       29.58R
IOWA CITY      CLEAR     66  42  41 NW21G29   29.53R
FORT DODGE     PTCLDY    57  42  57 NW12G24   29.62R
MARSHALLTOWN   CLEAR     55  41  59 NW7       29.53R
CEDAR RAPIDS   CLEAR     59  42  53 NW16      29.50R
$$

...NORTHERN ILLINOIS...


CITY           SKY/WX    TMP DP  RH WIND       PRES   REMARKS
CHICAGO-OHARE  PTCLDY    58  39  49 S20G28    29.45S
CHICAGO-MIDWAY PTCLDY    57  40  52 S21G28    29.47F
MOLINE         CLEAR     68  39  34 SW16      29.45R
ROCKFORD       PTCLDY    51  39  63 S9        29.44R
PEORIA         CLEAR     61  39  44 S15G25    29.51R
$$

NOTE: "FAIR" INDICATES FEW OR NO CLOUDS BELOW 12,000 FEET WITH NO
SIGNIFICANT WEATHER AND/OR OBSTRUCTIONS TO VISIBILITY. WIND
SPEEDS ARE IN MILES-PER-HOUR.




USA.gov is the U.S. government's official web portal to all federal, state and local government web resources and services.